This is the latest recevied weather packets stored in our database for station/object KC3BHK-2. If no packets are shown the sender has not sent any weather packets the latest 10 day(s).
| Time | Temp. | Humidity | Pressure | Rain* | Wind** | Luminosity | Snow |
|---|---|---|---|---|---|---|---|
| 1778010370 | 29.44° C | - | - | 0 mm | 9.83 m/s, 146° | - | - |
| 1778010064 | 29.44° C | - | - | 0 mm | 6.71 m/s, 120° | - | - |
| 1778009760 | 29.44° C | - | - | 0 mm | 3.58 m/s, 124° | - | - |
| 1778009452 | 28.33° C | - | - | 0 mm | 5.81 m/s, 131° | - | - |
| 1778009148 | 29.44° C | - | - | 0 mm | 6.26 m/s, 165° | - | - |
| 1778008841 | 28.33° C | - | - | 0 mm | 3.58 m/s, 129° | - | - |
| 1778008536 | 29.44° C | - | - | 0 mm | 6.26 m/s, 174° | - | - |
| 1778008232 | 28.89° C | - | - | 0 mm | 5.81 m/s, 191° | - | - |
| 1778007926 | 28.89° C | - | - | 0 mm | 5.36 m/s, 131° | - | - |
| 1778007618 | 28.89° C | - | - | 0 mm | 4.92 m/s, 210° | - | - |
| 1778007314 | 28.33° C | - | - | 0 mm | 6.26 m/s, 176° | - | - |
| 1778007009 | 28.33° C | - | - | 0 mm | 4.47 m/s, 167° | - | - |
| 1778006703 | 27.78° C | - | - | 0 mm | 4.92 m/s, 163° | - | - |
| 1778006399 | 28.89° C | - | - | 0 mm | 4.02 m/s, 163° | - | - |
| 1778006094 | 28.33° C | - | - | 0 mm | 6.26 m/s, 174° | - | - |
| 1778005786 | 28.89° C | - | - | 0 mm | 4.47 m/s, 124° | - | - |
| 1778005482 | 28.33° C | - | - | 0 mm | 3.58 m/s, 159° | - | - |
| 1778005177 | 28.33° C | - | - | 0 mm | 5.81 m/s, 208° | - | - |
| 1778004872 | 27.78° C | - | - | 0 mm | 3.58 m/s, 198° | - | - |
| 1778004567 | 28.33° C | - | - | 0 mm | 8.05 m/s, 183° | - | - |
| 1778004263 | 27.78° C | - | - | 0 mm | 4.02 m/s, 163° | - | - |
| 1778003955 | 27.78° C | - | - | 0 mm | 4.02 m/s, 190° | - | - |
| 1778003651 | 28.33° C | - | - | 0 mm | 5.36 m/s, 231° | - | - |
| 1778003346 | 28.33° C | - | - | 0 mm | 5.81 m/s, 190° | - | - |
| 1778003041 | 28.33° C | - | - | 0 mm | 3.58 m/s, 239° | - | - |
* Rain latest hour (hover to see other rain measurements)
** Current wind speed in m/s (hover to see current wind gust speed)